Location: White Plains
(41.0340°N, 73.7629°W)
Time: 20:22:09
(UTC-05:00)

Envisat - Visible Passes

Search period start: 18 February 2020 00:00
Search period end: 28 February 2020 00:00
Orbit: 764 x 766 km, 98.1° (Epoch: 18 February)

Date Brightness Start Highest point End Pass type
(mag) Time Alt. Az. Time Alt. Az. Time Alt. Az.
18 Feb 6.6 19:21:45 10° W 19:22:45 11° W 19:23:45 10° WNW visible
19 Feb 5.3 05:47:30 10° NE 05:51:56 29° E 05:56:19 10° SSE visible
19 Feb 5.5 18:41:28 10° SSW 18:45:34 25° W 18:49:43 10° NW visible
20 Feb 6.4 05:12:27 10° ENE 05:14:48 13° E 05:17:08 10° ESE visible
20 Feb 3.9 18:03:39 10° S 18:08:36 55° W 18:13:36 10° NNW visible
21 Feb 6.3 19:08:45 10° WSW 19:11:19 14° W 19:13:54 10° WNW visible
22 Feb 5.7 05:36:31 10° NE 05:40:33 23° E 05:44:34 10° SSE visible
22 Feb 5.1 18:29:44 10° SSW 18:34:12 31° W 18:38:42 10° NNW visible
24 Feb 4.6 06:01:24 10° NNE 06:06:12 41° E 06:10:57 10° SSE visible
24 Feb 6.1 18:56:30 10° SW 18:59:54 18° W 19:03:17 10° NW visible
25 Feb 6.1 05:25:39 10° NE 05:29:09 18° E 05:32:38 10° SE visible
25 Feb 4.7 18:18:06 10° SSW 18:22:50 39° W 18:27:36 10° NNW visible
27 Feb 5.1 05:50:17 10° NNE 05:54:50 32° E 05:59:21 10° SSE visible
27 Feb 5.7 18:44:33 10° SW 18:48:29 23° W 18:52:27 10° NW visible
